User: anonymous   Login
Location: Unspecified
(0.0000°N, 0.0000°E)
Time: 07:26:35
(UTC+00:00)
Language:

NOAA 16 DEB - Orbit

View from above orbital plane
View from above orbital plane
View from above satellite
View from above satellite

Ground track
Ground track

The orbit data is extracted from the following two-line orbital elements,

1 41059U 00055S   22334.67360771  .00000504  00000-0  27512-3 0  9999
2 41059  98.7374  52.5598 0022538  46.5877 313.7169 14.16352718362504
Epoch (UTC): 30 November 2022 16:09:59
Eccentricity: 0.0022538
inclination: 98.7374°
perigee height: 821 km
apogee height: 854 km
right ascension of ascending node: 52.5598°
argument of perigee: 46.5877°
revolutions per day: 14.16352718
mean anomaly at epoch: 313.7169°
orbit number at epoch: 36250

The dashed part of the orbit path shows where the satellite is in the earth's shadow,  

DLR